#timestamp,LO_Frequency,Hit 
1505109615.2,286046996.5,N
1505109635.0,286047001.1,N
1505109635.9,286047001.1,N
1505109655.8,286046999.4,N
1505109675.6,286046999.8,N
1505109695.4,286046998.6,N
1505109715.3,286046994.7,N
1505109735.1,286046990.7,P
1505109736.0,286046990.7,N
1505109755.8,286046991.0,N
1505109775.7,286046992.0,N
1505109795.5,286046992.1,P
1505109815.3,286046999.9,N
1505109835.2,286047005.6,N
1505109855.9,286047003.4,N
1505109875.7,286047005.9,N
1505109895.6,286047000.8,N
1505109915.4,286047001.0,N
1505109935.2,286046997.2,N
1505109955.0,286046995.7,N
1505109956.0,286046995.7,N
1505109975.8,286046997.6,N
1505109995.6,286046998.0,N
1505110015.4,286046999.6,N
1505110035.3,286046998.5,N
1505110055.1,286046998.9,N
1505110075.8,286047000.7,N
1505110095.7,286046996.7,N
1505110115.5,286046996.3,N
1505110135.3,286046993.3,N
1505110155.2,286046997.5,N
1505110175.9,286046995.6,N
1505110195.7,286046998.0,N
1505110215.6,286046993.5,N
1505110235.4,286046995.8,N
1505110255.2,286046994.5,N
1505110275.0,286046992.0,N
1505110275.9,286046992.0,N
1505110295.8,286046994.3,N
1505110315.6,286046995.0,N
1505110335.4,286046993.6,N
1505110355.3,286046993.3,N
1505110375.1,286046996.7,N
1505110395.8,286046997.3,N
1505110415.7,286046995.0,N
1505110435.5,286046998.5,N
1505110455.3,286047000.2,N
1505110475.2,286046998.4,N
1505110495.9,286046997.0,N
1505110515.7,286047000.7,N
1505110535.6,286046998.5,N
1505110555.4,286046997.7,N
1505110575.2,286047001.2,N
1505110595.0,286046999.1,N
1505110595.9,286046999.1,N
1505110615.8,286046997.0,N
1505110635.6,286046995.3,N
1505110655.4,286046995.3,N
1505110675.3,286046997.9,N
1505110695.1,286046993.8,N
1505110715.8,286046994.1,N
1505110735.7,286046993.9,N
1505110755.5,286046993.8,N
1505110775.3,286046996.1,N
1505110795.2,286046997.7,N
1505110815.9,286046992.9,N
1505110835.7,286046993.4,N
1505110855.6,286046992.0,P
1505110875.4,286046998.3,N
1505110895.2,286047000.8,N
1505110915.1,286046999.3,N
1505110916.0,286046999.3,N
1505110935.8,286046998.6,N
1505110955.6,286047006.0,N
1505110975.5,286047001.7,N
1505110995.3,286047002.1,N
1505111015.1,286047002.2,N
1505111035.8,286047000.8,N
1505111055.7,286047001.0,N
1505111075.5,286047001.9,N
1505111095.3,286047003.6,N
1505111115.2,286047000.1,N
1505111135.9,286046999.4,N
1505111155.7,286046996.5,N
1505111175.6,286046998.3,N
1505111195.4,286046995.4,N
1505111215.2,286046996.8,N
1505111235.1,286046997.3,N
1505111236.0,286046997.3,N
1505111255.8,286046998.8,N
1505111275.6,286046998.6,N
1505111295.4,286046999.4,N
1505111315.3,286046997.2,N
1505111335.1,286046999.3,N
1505111355.8,286047002.0,N
1505111375.7,286047005.9,N
1505111395.5,286047001.4,N
1505111415.3,286047002.5,N
1505111435.2,286046997.1,N
1505111455.9,286046998.0,N
1505111475.7,286046996.8,N
1505111495.6,286046998.0,N
1505111515.4,286046997.9,N
1505111535.2,286046998.3,N
1505111555.1,286046997.6,N
1505111556.0,286046997.6,N
1505111575.8,286046995.6,N
1505111595.6,286046993.3,N
1505111615.5,286046993.8,N
1505111635.3,286046996.1,N
1505111655.1,286046995.2,N
1505111675.8,286046994.9,N
1505111695.7,286046994.1,N
1505111715.5,286046995.1,N
1505111735.3,286046995.2,N
1505111755.2,286046995.5,N
1505111775.9,286046995.8,N
1505111795.7,286046994.0,N
1505111815.6,286046994.8,N
1505111835.4,286046996.2,N
1505111855.2,286046993.4,N
1505111875.1,286046995.3,N
1505111876.0,286046995.3,N
1505111895.8,286046994.3,N
1505111915.6,286046994.7,N
1505111935.5,286046991.9,N
1505111955.3,286046997.8,N
1505111975.1,286046997.7,N
1505111995.9,286047002.1,N
1505112015.7,286047000.0,N
1505112035.5,286046997.0,N
1505112055.3,286046998.2,N
1505112075.2,286046998.4,N
1505112095.0,286046997.0,N
1505112095.9,286046997.0,N
1505112115.7,286046999.3,N
1505112135.6,286046997.1,N
1505112155.4,286046996.8,N
1505112175.2,286046997.5,N
1505112195.1,286046994.2,N
1505112196.0,286046994.2,N
1505112215.8,286046992.6,P
1505112235.6,286046997.9,N
1505112255.5,286046999.3,N
1505112275.3,286046999.9,N
1505112295.1,286047002.7,N
1505112315.9,286046998.9,N
1505112335.7,286046997.6,N
1505112355.5,286046997.6,N
1505112375.4,286046996.3,N
1505112395.2,286046992.0,P
1505112415.0,286046995.7,N
1505112415.9,286046995.7,N
1505112435.8,286046998.7,N
1505112455.6,286046995.8,N
1505112475.4,286046995.3,N
1505112495.3,286046995.2,N
1505112515.1,286046994.9,N
1505112516.0,286046994.9,N
1505112535.8,286046997.6,N
1505112555.7,286046996.8,N
1505112575.5,286046997.4,N
1505112595.3,286046996.7,N
1505112615.1,286046996.7,N
1505112635.9,286046996.8,N
1505112655.7,286046999.1,N
1505112675.5,286046998.7,N
1505112695.4,286047000.6,N
1505112715.2,286047000.2,N
1505112735.0,286047000.8,N
1505112735.9,286047000.8,N
1505112755.8,286047003.6,N
1505112775.6,286047002.2,N
1505112795.4,286047002.3,N
1505112815.3,286047000.7,N
1505112835.1,286047001.0,N
1505112836.0,286047001.0,N
1505112855.8,286046997.0,N
1505112875.7,286046996.2,N
1505112895.5,286046995.3,N
1505112915.3,286046999.6,N
1505112935.1,286047001.2,N
1505112955.9,286047000.7,N
1505112975.7,286047000.8,N
1505112995.5,286047002.3,N
1505113015.4,286047001.3,N
1505113035.2,286047002.7,N
1505113055.0,286046998.1,N
1505113055.9,286046998.1,N
1505113075.8,286046997.1,N
1505113095.6,286046998.6,N
1505113115.4,286047002.4,N
1505113135.3,286047001.9,N
1505113155.1,286046998.2,N
1505113156.0,286046998.2,N
1505113175.8,286046996.9,N
1505113195.7,286047000.8,N
